www.pogodaiklimat.ru

Погода и климат >> Архив погоды >> Саудовская Аравия >> Makkah


АРХИВ ПОГОДЫ в Makkah

Время (UTC), дата Ветер
(напр.,м/с)
 
Видим.   Явления Облачность Т
(С)
Тd
(С)
f
(%)
Тe
(С)
Тes
(С)
Комфортность P
(гПа)
Po
(гПа)
Тmin
(С)
Tmax
(С)
R
(мм)
S
(см)
09 17.02 С 2 10 км 4/0
[Ac lent]
+23.2 +9.0 40 +25 +36 комфорт 1016.0 988.5
12 17.02 СЗ 2 10 км 5/0
[Ac trans]
+25.0 +6.0 30 +25 +31 комфорт 1014.0 986.6
15 17.02 СВ 2 10 км 4/0
[Ac trans]
+24.0 +7.0 34 +24 +24 комфорт 1014.5 987.0
18 17.02 С 2 10 км ясно +19.8 +10.0 53 +22 +22 комфорт 1017.3 989.5 +27.0
00 18.02 штиль 0 10 км ясно +16.4 +10.0 66 +16 +16 холодно 1017.3 989.4
06 18.02 штиль 0 10 км ясно +16.4 +8.0 58 +16 +24 очень
холодно
1018.0 989.9 +14.4
09 18.02 штиль 0 10 км ясно +28.6 +8.0 27 +28 +49 жарко 1016.5 989.3
12 18.02 штиль 0 10 км 4/0
[Ac trans]
+31.2 +9.0 25 +30 +40 жарко 1013.7 986.7
15 18.02 штиль 0 10 км 4/0
[As trans Cc]
+29.6 +9.0 28 +29 +29 жарко 1014.0 986.8
18 18.02 штиль 0 10 км 4/0
[Ac trans]
+24.0 +12.0 47 +26 +26 жарко 1016.0 988.5 +32.8
06 19.02 штиль 0 9000 м слабый дождь 9/5 1200 м
[Sc As op]
+22.0 +14.0 60 +25 +26 комфорт 1018.2 990.4 +18.6
09 19.02 ЮЗ 1 10 км 6/3 1200 м
[Cu med, cong Ac trans]
+26.6 +15.0 49 +29 +39 жарко 1017.5 990.2
12 19.02 З 1 10 км 8/8 1200 м
[Sc]
+27.8 +19.0 59 +33 +35 очень
душно
1015.2 988.2 0.3
15 19.02 ЮЗ 1 10 км 5/5 1200 м
[Sc diur, vesp]
+26.0 +18.0 61 +30 +30 душно 1016.0 988.7
18 19.02 ЮЗ 1 10 км 4/4 1200 м
[Cu hum]
+24.2 +18.0 68 +28 +28 душно 1017.0 989.6 +30.6
00 20.02 штиль 0 10 км ясно +25.0 +15.0 54 +28 +28 жарко 1015.9 988.6 0.3
06 20.02 штиль 0 10 км 1/1 1200 м
[Sc]
+23.0 +19.0 78 +29 +36 очень
душно
1016.2 988.7 +21.4
09 20.02 ЮЗ 2 10 км 5/5 1200 м
[Cu med, cong]
+28.0 +19.0 58 +33 +41 очень
душно
1015.0 987.8
12 20.02 ЮЗ 3 10 км 8/5 1200 м
[Sc diur, vesp As op]
+27.3 +20.0 64 +33 +35 очень
душно
1012.8 985.9
15 20.02 ЮЗ 2 10 км 6/4 1200 м
[Sc diur, vesp As op]
+26.7 +20.0 67 +33 +33 очень
душно
1013.3 986.3
18 20.02 штиль 0 10 км 4/0
[As trans]
+23.6 +18.0 71 +28 +28 душно 1014.8 987.6 +24.9
00 21.02 штиль 0 10 км ясно +24.0 +17.0 65 +28 +28 душно 1014.8 987.5
06 21.02 СЗ 2 10 км 6/6 1200 м
[Sc diur, vesp]
+21.7 +16.0 70 +25 +28 комфорт 1014.2 986.7 +21.3
09 21.02 СВ 2 10 км 6/6 1200 м
[Sc diur, vesp]
+25.8 +14.0 48 +28 +35 жарко 1012.8 985.8
12 21.02 штиль 0 10 км 5/5 1200 м
[Sc diur, vesp]
+30.6 +12.0 32 +31 +37 жарко 1010.2 983.4
15 21.02 СЗ 1 10 км 1/1 1200 м
[Sc diur, vesp]
+27.6 +10.0 33 +28 +28 жарко 1011.0 983.9
18 21.02 штиль 0 10 км 3/3 1200 м
[Sc diur, vesp]
+23.6 +11.0 45 +25 +25 комфорт 1012.9 985.5 +32.0
06 22.02 штиль 0 10 км 6/6 1200 м
[Sc diur, vesp]
+21.0 +12.0 56 +23 +26 комфорт 1013.5 986.0 +20.0
09 22.02 З 1 10 км 6/6 1200 м
[Sc diur, vesp]
+27.2 +12.0 39 +28 +36 жарко 1012.2 985.1
12 22.02 ЮЗ 3 10 км 6/6 1200 м
[Sc]
+29.2 +14.0 39 +31 +34 жарко 1009.8 982.9
15 22.02 СЗ 3 10 км 6/6 1050 м
[Sc diur, vesp]
+26.5 +15.0 49 +29 +29 жарко 1010.5 983.4
18 22.02 С 2 10 км 6/6 1200 м
[Sc]
+23.5 +14.0 55 +26 +26 жарко 1012.8 985.4 +30.0
00 23.02 штиль 0 10 км ясно +20.2 +13.0 63 +22 +22 комфорт 1012.7 985.2
06 23.02 штиль 0 10 км ясно +19.2 +11.0 59 +20 +28 прохладно 1015.4 987.7 +16.6
09 23.02 С 1 10 км ясно +27.6 +7.0 27 +27 +46 жарко 1014.1 987.0
12 23.02 СЗ 1 10 км ясно +30.0 +8.0 25 +29 +40 жарко 1011.7 984.8
15 23.02 СЗ 3 10 км ясно +27.2 +6.0 26 +26 +26 жарко 1012.0 984.9
18 23.02 СЗ 2 10 км ясно +22.0 +8.0 41 +23 +23 комфорт 1014.8 987.2 +31.0

 

Местоположение метеостанции Makkah (Саудовская Аравия): широта 21.43 долгота 39.77 высота над уровнем моря 240 м.

В архиве по умолчанию представлена погода в Makkah за последнюю неделю. Архивные данные за месяц целиком и за предыдущие месяцы, начиная с января 2011 года, Вы можете получить, выбрав интересующий диапазон дат из раскрывающегося списка и нажав кнопку "Ввод!".

Внимание! Время в таблицах - всемирное. Для получения местного времени необходимо прибавить поправку, которая в Makkah равна 3 ч.

Смотрите также архив погоды в соседних городах и на ближайших метеорологических станциях:

Погода в Mina (Саудовская Аравия) (10 км)
Погода в Arafat (Саудовская Аравия) (24 км)
Погода в Jeddah King Abdul Aziz (Саудовская Аравия) (68 км)
Погода в Al Taif (Саудовская Аравия) (81 км)
Погода в Al Baha (Саудовская Аравия) (232 км)
Погода в Port Sudan (Судан) (336 км)
Погода в Bisha (Саудовская Аравия) (338 км)
Погода в Madinah (Саудовская Аравия) (347 км)
Погода в Yanbu (Саудовская Аравия) (347 км)
Погода в Abha (Саудовская Аравия) (466 км)

Пояснения к столбцам:

Ветер - указаны скорость ветра в м/с - средняя за 10 мин, порывы в срок и между сроками (в фигурных скобках) и направление, откуда дует ветер: С - северный, СВ - северо-восточный, В - восточный, ЮВ - юго-восточный, Ю - южный, ЮЗ - юго-западный, З - западный, СЗ - северо-западный.
Видимость - горизонтальная дальность видимости в метрах или километрах. При видимости от 1 до 10 км при отсутствии осадков обычно наблюдается дымка, при ухудшении видимости до 1 км и менее - туман. В сухую погоду видимость может ухудшаться дымом, пылью или мглою.
Явления - указаны атмосферные явления, наблюдавшиеся в срок или в последний час перед сроком; фигурными скобками обозначены явления, наблюдавшиеся между сроками (за 1-3 часа до срока); квадратными скобками обозначены град или гололедные отложения с указанием их диаметра в мм.
Облачность - указаны через наклонную черту общая и нижняя облачность в баллах и высота нижней границы облаков в метрах; квадратными скобками обозначены формы облаков: Ci - перистые, Cs - перисто-слоистые, Cc - перисто-кучевые, Ac - высококучевые, As - высокослоистые, Sc - слоисто-кучевые, Ns - слоисто-дождевые, Cu - кучевые, Cb - кучево-дождевые. Подробнее классификацию облаков см. в Атласе облаков (PDF).
T - Температура воздуха - температура, измеренная на высоте 2 м над землей.
Td - Температура точки росы - температура, при понижении до которой содержащийся в воздухе водяной пар достигнет насыщения.
f - Относительная влажность воздуха - влажноcть воздуха, измеренная на высоте 2 м над землей.
Te - Эффективная температура - температура, которую ощущает одетый по сезону человек в тени. Характеристика душности погоды. При расчете учитывается влияние влажности воздуха и скорости ветра на теплоощущения человека.
Tes - Эффективная температура на солнце - температура, которую ощущает человек, с поправкой на солнечный нагрев. Характеристика знойности погоды. Зависит от высоты солнца над горизонтом, облачности и скорости ветра. Ночью, в пасмурную погоду, а также при ветре 12 м/с и более поправка равна нулю.
P - Атмосферное давление - приведенное к уровню моря атмосферное давление.
Po - Атмосферное давление - измеренное на уровне метеостанции атмосферное давление.
Tmin - Минимальная температура - минимум температуры воздуха на высоте 2 м над землей.
Tmax - Максимальная температура - максимум температуры воздуха на высоте 2 м над землей.
R - Количество осадков - Количество выпавших осадков, мм. При наведении курсора мыши на число - период времени, за который выпало указанное количество осадков.
S - Снежный покров - Высота снежного покрова, см. При наведении курсора мыши на число - состояние снежного покрова и степень покрытия местности в баллах.